Flag for U.S.A. Weather past 2 weeks in Grand Rapids, Michigan, U.S.A.

Now
59 °F

Scattered clouds.


Feels Like: 60 °F
Forecast: 35 / 62 °F
Wind: 3 mph from North

Location: Kent County International Airport

Current Time: Apr 28, 2015 at 2:23:31 PM

Latest Report: Apr 28, 2015 at 1:53 PM


Visibility: 10 mi

Pressure: 30.09 "Hg

Humidity: 42%

Dew point: 36 °F

Location of Grand RapidsLocation

Historic Weather in Grand Rapids — Graph

°F

Grand Rapids temperature yesterday

Maximum temperature yesterday: 54 °F (at 6:53 PM)
Minimum temperature yesterday: 40 °F (at 4:53 AM)
Average temperature yesterday: 46 °F

Past Weeks' High & Low Weather Summary

 TemperatureHumidityPressure
High75 °F (Apr 17, 3:53 PM)97% (Apr 20, 3:53 AM)30.36 "Hg (Apr 20, 3:53 AM)
Low26 °F (Apr 24, 6:53 AM)18% (Apr 18, 6:53 PM)29.15 "Hg (Apr 20, 3:53 AM)
Average48 °F57%29.94 "Hg
* Reported Apr 13 12:53 PM — Apr 28 12:53 PM, Grand Rapids, Weather by CustomWeather, © 2015

Note: Actual official high and low records may vary slightly from our data, if they occured in-between our weather recording intervals... More about our weather records

Advertising

Grand Rapids weather history for previous 24 hours

 ConditionsComfort  
Time TempWeatherWind HumidityBarometerVisibility
12:53 PM
Tue, Apr 28
58 °FScattered clouds.No wind41%30.11 "Hg10 mi
11:53 AM57 °FPassing clouds.5 mph42%30.13 "Hg10 mi
10:53 AM54 °FPassing clouds.5 mph49%30.14 "Hg10 mi
9:53 AM50 °FPassing clouds.5 mph57%30.16 "Hg10 mi
8:53 AM46 °FPassing clouds.10 mph63%30.16 "Hg10 mi
7:53 AM39 °FPassing clouds.5 mph82%30.16 "Hg10 mi
6:53 AM36 °FPassing clouds.No wind82%30.15 "Hg10 mi
5:53 AM37 °FClear.3 mph82%30.14 "Hg10 mi
4:53 AM37 °FClear.No wind82%30.12 "Hg10 mi
3:53 AM37 °FClear.8 mph82%30.11 "Hg10 mi
2:53 AM38 °FClear.3 mph83%30.11 "Hg10 mi
1:53 AM39 °FClear.No wind76%30.10 "Hg10 mi
12:53 AM42 °FClear.6 mph71%30.10 "Hg10 mi
11:53 PM
Mon, Apr 27
43 °FPassing clouds.6 mph71%30.10 "Hg10 mi
10:53 PM45 °FPassing clouds.8 mph68%30.09 "Hg10 mi
9:53 PM48 °FPassing clouds.6 mph61%30.09 "Hg10 mi
8:53 PM50 °FPartly sunny.6 mph54%30.09 "Hg10 mi
7:53 PM52 °FBroken clouds.6 mph47%30.08 "Hg10 mi
6:53 PM54 °FPartly sunny.5 mph43%30.08 "Hg10 mi
5:53 PM53 °FPartly sunny.8 mph45%30.07 "Hg10 mi
4:53 PM52 °FPartly sunny.3 mph47%30.07 "Hg10 mi
3:53 PM52 °FPartly sunny.10 mph47%30.08 "Hg10 mi
2:53 PM50 °FPartly sunny.9 mph52%30.08 "Hg10 mi
Weather by CustomWeather, © 2015

See weather overviewHow to use our weather pages